Location: Bercimuel
(41.3983°N, 3.5711°W)
Time: 13:24:28
(UTC+00:00)

Cosmos 2142 Rocket - Pass Details

Date: 15 May 2026
Orbit: 951 x 1005 km, 83.0° (Epoch: 11 June)

Event Time Altitude Azimuth Distance (km) Brightness Sun altitude
Exits shadow 23:30:57 84° 163° (SSE) 991 4.3 -28.9°
Maximum altitude 23:31:11 88° 98° (E) 986 4.4 -28.9°
Drops below altitude 10° 23:37:26 10° 8° (N) 2,721 7.7 -29.1°
Sets 23:39:56 0° 8° (N) 3,664 8.6 -29.1°
